<?xml version="1.0" encoding="UTF-8" standalone="no" ?>
<gpx xmlns="http://www.topografix.com/GPX/1/1" xmlns:xsi="http://www.w3.org/2001/XMLSchema-instance" xsi:schemaLocation="http://www.topografix.com/GPX/1/1 http://www.topografix.com/GPX/1/1/gpx.xsd" version="1.1" creator="VisuGPX - https://www.visugpx.com">
  <metadata>
    <name>14144440-CHAVANAY</name>
  </metadata>
  <trk>
    <name><![CDATA[14144440-CHAVANAY]]></name>
    <extensions>
      <line xmlns="http://www.topografix.com/GPX/gpx_style/0/2">
        <color>0000FF</color>
        <width>4</width>
      </line>
    </extensions>
    <trkseg>
      <trkpt lat="45.41221" lon="4.73822">
        <ele>143</ele>
        <time>2022-06-20T19:25:14Z</time>
      </trkpt>
      <trkpt lat="45.41223" lon="4.73771">
        <ele>144</ele>
        <time>2022-06-20T19:26:02Z</time>
      </trkpt>
      <trkpt lat="45.41254" lon="4.7375">
        <ele>144</ele>
        <time>2022-06-20T19:26:48Z</time>
      </trkpt>
      <trkpt lat="45.41298" lon="4.7375">
        <ele>144</ele>
        <time>2022-06-20T19:27:46Z</time>
      </trkpt>
      <trkpt lat="45.41302" lon="4.73707">
        <ele>145</ele>
        <time>2022-06-20T19:28:27Z</time>
      </trkpt>
      <trkpt lat="45.41388" lon="4.73712">
        <ele>146</ele>
        <time>2022-06-20T19:30:22Z</time>
      </trkpt>
      <trkpt lat="45.41365" lon="4.73648">
        <ele>146</ele>
        <time>2022-06-20T19:31:29Z</time>
      </trkpt>
      <trkpt lat="45.41372" lon="4.73612">
        <ele>148</ele>
        <time>2022-06-20T19:32:04Z</time>
      </trkpt>
      <trkpt lat="45.41417" lon="4.73602">
        <ele>149</ele>
        <time>2022-06-20T19:33:05Z</time>
      </trkpt>
      <trkpt lat="45.41393" lon="4.7352">
        <ele>150</ele>
        <time>2022-06-20T19:34:28Z</time>
      </trkpt>
      <trkpt lat="45.41388" lon="4.73441">
        <ele>150</ele>
        <time>2022-06-20T19:35:43Z</time>
      </trkpt>
      <trkpt lat="45.41381" lon="4.73385">
        <ele>151</ele>
        <time>2022-06-20T19:36:36Z</time>
      </trkpt>
      <trkpt lat="45.41393" lon="4.73334">
        <ele>152</ele>
        <time>2022-06-20T19:37:26Z</time>
      </trkpt>
      <trkpt lat="45.41463" lon="4.73275">
        <ele>161</ele>
        <time>2022-06-20T19:39:15Z</time>
      </trkpt>
      <trkpt lat="45.41411" lon="4.73115">
        <ele>163</ele>
        <time>2022-06-20T19:42:00Z</time>
      </trkpt>
      <trkpt lat="45.41257" lon="4.73176">
        <ele>162</ele>
        <time>2022-06-20T19:45:33Z</time>
      </trkpt>
      <trkpt lat="45.41216" lon="4.73138">
        <ele>168</ele>
        <time>2022-06-20T19:46:38Z</time>
      </trkpt>
      <trkpt lat="45.41204" lon="4.73041">
        <ele>172</ele>
        <time>2022-06-20T19:48:11Z</time>
      </trkpt>
      <trkpt lat="45.41101" lon="4.72977">
        <ele>197</ele>
        <time>2022-06-20T19:50:41Z</time>
      </trkpt>
      <trkpt lat="45.41073" lon="4.72959">
        <ele>207</ele>
        <time>2022-06-20T19:51:22Z</time>
      </trkpt>
      <trkpt lat="45.41087" lon="4.72883">
        <ele>218</ele>
        <time>2022-06-20T19:52:35Z</time>
      </trkpt>
      <trkpt lat="45.41048" lon="4.72834">
        <ele>234</ele>
        <time>2022-06-20T19:53:45Z</time>
      </trkpt>
      <trkpt lat="45.41008" lon="4.72811">
        <ele>242</ele>
        <time>2022-06-20T19:54:42Z</time>
      </trkpt>
      <trkpt lat="45.40962" lon="4.72783">
        <ele>249</ele>
        <time>2022-06-20T19:55:49Z</time>
      </trkpt>
      <trkpt lat="45.4098" lon="4.72745">
        <ele>252</ele>
        <time>2022-06-20T19:56:32Z</time>
      </trkpt>
      <trkpt lat="45.41041" lon="4.7277">
        <ele>245</ele>
        <time>2022-06-20T19:57:57Z</time>
      </trkpt>
      <trkpt lat="45.41058" lon="4.7278">
        <ele>243</ele>
        <time>2022-06-20T19:58:21Z</time>
      </trkpt>
      <trkpt lat="45.41086" lon="4.72774">
        <ele>241</ele>
        <time>2022-06-20T19:58:59Z</time>
      </trkpt>
      <trkpt lat="45.41101" lon="4.72734">
        <ele>246</ele>
        <time>2022-06-20T19:59:41Z</time>
      </trkpt>
      <trkpt lat="45.41115" lon="4.727">
        <ele>249</ele>
        <time>2022-06-20T20:00:18Z</time>
      </trkpt>
      <trkpt lat="45.41157" lon="4.72698">
        <ele>242</ele>
        <time>2022-06-20T20:01:14Z</time>
      </trkpt>
      <trkpt lat="45.41173" lon="4.72672">
        <ele>243</ele>
        <time>2022-06-20T20:01:47Z</time>
      </trkpt>
      <trkpt lat="45.41182" lon="4.72644">
        <ele>242</ele>
        <time>2022-06-20T20:02:16Z</time>
      </trkpt>
      <trkpt lat="45.41176" lon="4.72588">
        <ele>249</ele>
        <time>2022-06-20T20:03:09Z</time>
      </trkpt>
      <trkpt lat="45.41165" lon="4.72546">
        <ele>250</ele>
        <time>2022-06-20T20:03:51Z</time>
      </trkpt>
      <trkpt lat="45.41147" lon="4.72516">
        <ele>252</ele>
        <time>2022-06-20T20:04:28Z</time>
      </trkpt>
      <trkpt lat="45.41115" lon="4.72503">
        <ele>260</ele>
        <time>2022-06-20T20:05:12Z</time>
      </trkpt>
      <trkpt lat="45.4109" lon="4.72469">
        <ele>265</ele>
        <time>2022-06-20T20:05:58Z</time>
      </trkpt>
      <trkpt lat="45.41058" lon="4.72451">
        <ele>273</ele>
        <time>2022-06-20T20:06:44Z</time>
      </trkpt>
      <trkpt lat="45.4103" lon="4.72433">
        <ele>280</ele>
        <time>2022-06-20T20:07:25Z</time>
      </trkpt>
      <trkpt lat="45.41018" lon="4.72369">
        <ele>283</ele>
        <time>2022-06-20T20:08:27Z</time>
      </trkpt>
      <trkpt lat="45.40998" lon="4.72319">
        <ele>288</ele>
        <time>2022-06-20T20:09:21Z</time>
      </trkpt>
      <trkpt lat="45.40976" lon="4.72281">
        <ele>290</ele>
        <time>2022-06-20T20:10:07Z</time>
      </trkpt>
      <trkpt lat="45.40961" lon="4.72245">
        <ele>292</ele>
        <time>2022-06-20T20:10:47Z</time>
      </trkpt>
      <trkpt lat="45.40938" lon="4.72221">
        <ele>295</ele>
        <time>2022-06-20T20:11:25Z</time>
      </trkpt>
      <trkpt lat="45.4091" lon="4.72225">
        <ele>300</ele>
        <time>2022-06-20T20:12:02Z</time>
      </trkpt>
      <trkpt lat="45.40886" lon="4.72209">
        <ele>302</ele>
        <time>2022-06-20T20:12:37Z</time>
      </trkpt>
      <trkpt lat="45.40857" lon="4.72203">
        <ele>305</ele>
        <time>2022-06-20T20:13:17Z</time>
      </trkpt>
      <trkpt lat="45.40804" lon="4.72157">
        <ele>309</ele>
        <time>2022-06-20T20:14:39Z</time>
      </trkpt>
      <trkpt lat="45.40758" lon="4.72126">
        <ele>314</ele>
        <time>2022-06-20T20:15:47Z</time>
      </trkpt>
      <trkpt lat="45.40737" lon="4.72097">
        <ele>315</ele>
        <time>2022-06-20T20:16:26Z</time>
      </trkpt>
      <trkpt lat="45.40722" lon="4.72043">
        <ele>315</ele>
        <time>2022-06-20T20:17:21Z</time>
        <extensions>
          <visugpx:TrkExtension xmlns:visugpx="https://www.visugpx.com/editgpx/">
            <visugpx:node>1</visugpx:node>
            </visugpx:TrkExtension>
        </extensions>
      </trkpt>
      <trkpt lat="45.40718" lon="4.72021">
        <ele>315.2</ele>
      </trkpt>
      <trkpt lat="45.40705" lon="4.71989">
        <ele>314.2</ele>
      </trkpt>
      <trkpt lat="45.40703" lon="4.71984">
        <ele>314.2</ele>
      </trkpt>
      <trkpt lat="45.40697" lon="4.71976">
        <ele>313.4</ele>
      </trkpt>
      <trkpt lat="45.40687" lon="4.71957">
        <ele>312.7</ele>
      </trkpt>
      <trkpt lat="45.40683" lon="4.71954">
        <ele>312.1</ele>
      </trkpt>
      <trkpt lat="45.40678" lon="4.71954">
        <ele>311.2</ele>
      </trkpt>
      <trkpt lat="45.40675" lon="4.71956">
        <ele>310.6</ele>
      </trkpt>
      <trkpt lat="45.40673" lon="4.71961">
        <ele>310.1</ele>
      </trkpt>
      <trkpt lat="45.4067" lon="4.71972">
        <ele>309.5</ele>
      </trkpt>
      <trkpt lat="45.40669" lon="4.71975">
        <ele>309.2</ele>
      </trkpt>
      <trkpt lat="45.40646" lon="4.71977">
        <ele>306.6</ele>
      </trkpt>
      <trkpt lat="45.40633" lon="4.71979">
        <ele>305.4</ele>
      </trkpt>
      <trkpt lat="45.40629" lon="4.7198">
        <ele>305.1</ele>
      </trkpt>
      <trkpt lat="45.40621" lon="4.71978">
        <ele>304.6</ele>
      </trkpt>
      <trkpt lat="45.40617" lon="4.71974">
        <ele>304.4</ele>
      </trkpt>
      <trkpt lat="45.40609" lon="4.71962">
        <ele>304.2</ele>
      </trkpt>
      <trkpt lat="45.40597" lon="4.71945">
        <ele>304</ele>
      </trkpt>
      <trkpt lat="45.40577" lon="4.71908">
        <ele>304.1</ele>
        <extensions>
          <visugpx:TrkExtension xmlns:visugpx="https://www.visugpx.com/editgpx/">
            <visugpx:node>2</visugpx:node>
            </visugpx:TrkExtension>
        </extensions>
      </trkpt>
      <trkpt lat="45.40573" lon="4.71899">
        <ele>304.3</ele>
      </trkpt>
      <trkpt lat="45.40568" lon="4.71889">
        <ele>304.4</ele>
      </trkpt>
      <trkpt lat="45.4056" lon="4.71872">
        <ele>305.3</ele>
      </trkpt>
      <trkpt lat="45.40559" lon="4.71864">
        <ele>305.8</ele>
      </trkpt>
      <trkpt lat="45.40552" lon="4.71857">
        <ele>305.6</ele>
      </trkpt>
      <trkpt lat="45.40518" lon="4.71826">
        <ele>302.9</ele>
      </trkpt>
      <trkpt lat="45.405" lon="4.71812">
        <ele>301</ele>
      </trkpt>
      <trkpt lat="45.40482" lon="4.71793">
        <ele>297</ele>
      </trkpt>
      <trkpt lat="45.40476" lon="4.71787">
        <ele>295.4</ele>
      </trkpt>
      <trkpt lat="45.40475" lon="4.71784">
        <ele>295</ele>
      </trkpt>
      <trkpt lat="45.40462" lon="4.71741">
        <ele>288.9</ele>
      </trkpt>
      <trkpt lat="45.40462" lon="4.71739">
        <ele>288.8</ele>
      </trkpt>
      <trkpt lat="45.40453" lon="4.71716">
        <ele>285.2</ele>
      </trkpt>
      <trkpt lat="45.4044" lon="4.71666">
        <ele>275.4</ele>
      </trkpt>
      <trkpt lat="45.40438" lon="4.71653">
        <ele>274.2</ele>
      </trkpt>
      <trkpt lat="45.40434" lon="4.71623">
        <ele>269.7</ele>
      </trkpt>
      <trkpt lat="45.40434" lon="4.71606">
        <ele>266.8</ele>
      </trkpt>
      <trkpt lat="45.40432" lon="4.71587">
        <ele>263.3</ele>
      </trkpt>
      <trkpt lat="45.40424" lon="4.71581">
        <ele>262.2</ele>
      </trkpt>
      <trkpt lat="45.40419" lon="4.71576">
        <ele>262.7</ele>
      </trkpt>
      <trkpt lat="45.40408" lon="4.71577">
        <ele>262.6</ele>
      </trkpt>
      <trkpt lat="45.40387" lon="4.71589">
        <ele>263.5</ele>
      </trkpt>
      <trkpt lat="45.40381" lon="4.71609">
        <ele>265.4</ele>
      </trkpt>
      <trkpt lat="45.40372" lon="4.71634">
        <ele>269.4</ele>
      </trkpt>
      <trkpt lat="45.40362" lon="4.71654">
        <ele>272.5</ele>
      </trkpt>
      <trkpt lat="45.40356" lon="4.71664">
        <ele>274.4</ele>
      </trkpt>
      <trkpt lat="45.40328" lon="4.71699">
        <ele>281.2</ele>
      </trkpt>
      <trkpt lat="45.40321" lon="4.7171">
        <ele>282.1</ele>
      </trkpt>
      <trkpt lat="45.40313" lon="4.71718">
        <ele>284.3</ele>
      </trkpt>
      <trkpt lat="45.40305" lon="4.71723">
        <ele>286.9</ele>
      </trkpt>
      <trkpt lat="45.40298" lon="4.71726">
        <ele>287.3</ele>
      </trkpt>
      <trkpt lat="45.40272" lon="4.71739">
        <ele>289.2</ele>
      </trkpt>
      <trkpt lat="45.40243" lon="4.71754">
        <ele>293.6</ele>
        <extensions>
          <visugpx:TrkExtension xmlns:visugpx="https://www.visugpx.com/editgpx/">
            <visugpx:node>3</visugpx:node>
            </visugpx:TrkExtension>
        </extensions>
      </trkpt>
      <trkpt lat="45.40242" lon="4.71754">
        <ele>293.8</ele>
      </trkpt>
      <trkpt lat="45.40233" lon="4.71761">
        <ele>294.7</ele>
      </trkpt>
      <trkpt lat="45.40228" lon="4.71765">
        <ele>295.4</ele>
      </trkpt>
      <trkpt lat="45.40227" lon="4.71768">
        <ele>295.4</ele>
      </trkpt>
      <trkpt lat="45.40225" lon="4.7177">
        <ele>295.7</ele>
      </trkpt>
      <trkpt lat="45.40217" lon="4.71801">
        <ele>297.3</ele>
      </trkpt>
      <trkpt lat="45.40211" lon="4.71821">
        <ele>297.4</ele>
      </trkpt>
      <trkpt lat="45.40207" lon="4.71827">
        <ele>297.2</ele>
      </trkpt>
      <trkpt lat="45.40194" lon="4.71847">
        <ele>296.6</ele>
      </trkpt>
      <trkpt lat="45.40188" lon="4.71859">
        <ele>296.8</ele>
      </trkpt>
      <trkpt lat="45.40175" lon="4.71899">
        <ele>297.4</ele>
      </trkpt>
      <trkpt lat="45.40167" lon="4.7193">
        <ele>297.5</ele>
      </trkpt>
      <trkpt lat="45.40161" lon="4.71948">
        <ele>297.6</ele>
      </trkpt>
      <trkpt lat="45.40149" lon="4.71976">
        <ele>298.8</ele>
      </trkpt>
      <trkpt lat="45.40098" lon="4.72061">
        <ele>298.7</ele>
      </trkpt>
      <trkpt lat="45.40082" lon="4.72088">
        <ele>299.1</ele>
      </trkpt>
      <trkpt lat="45.4006" lon="4.72129">
        <ele>300.5</ele>
      </trkpt>
      <trkpt lat="45.40055" lon="4.72138">
        <ele>301</ele>
      </trkpt>
      <trkpt lat="45.40042" lon="4.72157">
        <ele>302.5</ele>
      </trkpt>
      <trkpt lat="45.40036" lon="4.72163">
        <ele>303.2</ele>
      </trkpt>
      <trkpt lat="45.40031" lon="4.72169">
        <ele>303.8</ele>
      </trkpt>
      <trkpt lat="45.40025" lon="4.72179">
        <ele>304</ele>
      </trkpt>
      <trkpt lat="45.40011" lon="4.72205">
        <ele>304.4</ele>
      </trkpt>
      <trkpt lat="45.39999" lon="4.72223">
        <ele>305</ele>
      </trkpt>
      <trkpt lat="45.39976" lon="4.72256">
        <ele>304</ele>
      </trkpt>
      <trkpt lat="45.39967" lon="4.7227">
        <ele>303.3</ele>
      </trkpt>
      <trkpt lat="45.39944" lon="4.72296">
        <ele>303</ele>
      </trkpt>
      <trkpt lat="45.39928" lon="4.72308">
        <ele>303.4</ele>
      </trkpt>
      <trkpt lat="45.39921" lon="4.72315">
        <ele>303.2</ele>
      </trkpt>
      <trkpt lat="45.39907" lon="4.72338">
        <ele>303.1</ele>
      </trkpt>
      <trkpt lat="45.39903" lon="4.72347">
        <ele>303</ele>
      </trkpt>
      <trkpt lat="45.39898" lon="4.72359">
        <ele>302.5</ele>
      </trkpt>
      <trkpt lat="45.39893" lon="4.7237">
        <ele>302.7</ele>
      </trkpt>
      <trkpt lat="45.39879" lon="4.7239">
        <ele>302.9</ele>
      </trkpt>
      <trkpt lat="45.39865" lon="4.72407">
        <ele>302.8</ele>
      </trkpt>
      <trkpt lat="45.39822" lon="4.7246">
        <ele>302</ele>
      </trkpt>
      <trkpt lat="45.39813" lon="4.72472">
        <ele>302</ele>
      </trkpt>
      <trkpt lat="45.39803" lon="4.72486">
        <ele>301.5</ele>
      </trkpt>
      <trkpt lat="45.39775" lon="4.72518">
        <ele>299.4</ele>
      </trkpt>
      <trkpt lat="45.39747" lon="4.7255">
        <ele>297.3</ele>
      </trkpt>
      <trkpt lat="45.39716" lon="4.72589">
        <ele>294.8</ele>
      </trkpt>
      <trkpt lat="45.39707" lon="4.72597">
        <ele>294.8</ele>
      </trkpt>
      <trkpt lat="45.397" lon="4.72605">
        <ele>294.8</ele>
      </trkpt>
      <trkpt lat="45.39704" lon="4.72612">
        <ele>294.6</ele>
        <extensions>
          <visugpx:TrkExtension xmlns:visugpx="https://www.visugpx.com/editgpx/">
            <visugpx:node>4</visugpx:node>
            </visugpx:TrkExtension>
        </extensions>
      </trkpt>
      <trkpt lat="45.397" lon="4.72605">
        <ele>294.8</ele>
      </trkpt>
      <trkpt lat="45.39694" lon="4.72605">
        <ele>295</ele>
      </trkpt>
      <trkpt lat="45.39689" lon="4.72593">
        <ele>295</ele>
      </trkpt>
      <trkpt lat="45.39681" lon="4.72581">
        <ele>295.1</ele>
      </trkpt>
      <trkpt lat="45.3967" lon="4.72566">
        <ele>296.2</ele>
      </trkpt>
      <trkpt lat="45.39657" lon="4.72551">
        <ele>297.6</ele>
      </trkpt>
      <trkpt lat="45.39635" lon="4.72523">
        <ele>299.7</ele>
      </trkpt>
      <trkpt lat="45.39604" lon="4.72483">
        <ele>302.7</ele>
      </trkpt>
      <trkpt lat="45.3958" lon="4.72454">
        <ele>303.8</ele>
      </trkpt>
      <trkpt lat="45.39572" lon="4.72443">
        <ele>304.5</ele>
      </trkpt>
      <trkpt lat="45.39542" lon="4.72398">
        <ele>306.7</ele>
      </trkpt>
      <trkpt lat="45.39536" lon="4.7239">
        <ele>307</ele>
      </trkpt>
      <trkpt lat="45.39521" lon="4.72368">
        <ele>308</ele>
      </trkpt>
      <trkpt lat="45.39504" lon="4.72344">
        <ele>309.6</ele>
      </trkpt>
      <trkpt lat="45.39495" lon="4.72329">
        <ele>310.1</ele>
      </trkpt>
      <trkpt lat="45.39471" lon="4.723">
        <ele>310.6</ele>
      </trkpt>
      <trkpt lat="45.39447" lon="4.7227">
        <ele>312.9</ele>
      </trkpt>
      <trkpt lat="45.39438" lon="4.72256">
        <ele>313.9</ele>
      </trkpt>
      <trkpt lat="45.39414" lon="4.72225">
        <ele>315.5</ele>
      </trkpt>
      <trkpt lat="45.3939" lon="4.72196">
        <ele>316.9</ele>
      </trkpt>
      <trkpt lat="45.3938" lon="4.72181">
        <ele>318.8</ele>
      </trkpt>
      <trkpt lat="45.39371" lon="4.72165">
        <ele>320.1</ele>
      </trkpt>
      <trkpt lat="45.39337" lon="4.72111">
        <ele>323.9</ele>
      </trkpt>
      <trkpt lat="45.39317" lon="4.72077">
        <ele>326.7</ele>
      </trkpt>
      <trkpt lat="45.39314" lon="4.72073">
        <ele>327.1</ele>
      </trkpt>
      <trkpt lat="45.39296" lon="4.72043">
        <ele>330.8</ele>
      </trkpt>
      <trkpt lat="45.39282" lon="4.72019">
        <ele>332.7</ele>
      </trkpt>
      <trkpt lat="45.39266" lon="4.71981">
        <ele>334</ele>
      </trkpt>
      <trkpt lat="45.3926" lon="4.71963">
        <ele>334.5</ele>
      </trkpt>
      <trkpt lat="45.39257" lon="4.71949">
        <ele>335.5</ele>
      </trkpt>
      <trkpt lat="45.39255" lon="4.71942">
        <ele>335.9</ele>
      </trkpt>
      <trkpt lat="45.39251" lon="4.71934">
        <ele>336.3</ele>
      </trkpt>
      <trkpt lat="45.39246" lon="4.71927">
        <ele>336.8</ele>
      </trkpt>
      <trkpt lat="45.3923" lon="4.71903">
        <ele>338.2</ele>
      </trkpt>
      <trkpt lat="45.39222" lon="4.71891">
        <ele>338.9</ele>
      </trkpt>
      <trkpt lat="45.39212" lon="4.71865">
        <ele>339.5</ele>
      </trkpt>
      <trkpt lat="45.39208" lon="4.71852">
        <ele>339.8</ele>
      </trkpt>
      <trkpt lat="45.39204" lon="4.71836">
        <ele>340.2</ele>
      </trkpt>
      <trkpt lat="45.39196" lon="4.71805">
        <ele>341</ele>
      </trkpt>
      <trkpt lat="45.3918" lon="4.71763">
        <ele>342.5</ele>
      </trkpt>
      <trkpt lat="45.39178" lon="4.71756">
        <ele>342.8</ele>
        <extensions>
          <visugpx:TrkExtension xmlns:visugpx="https://www.visugpx.com/editgpx/">
            <visugpx:node>5</visugpx:node>
            </visugpx:TrkExtension>
        </extensions>
      </trkpt>
      <trkpt lat="45.39155" lon="4.71605">
        <ele>345.5</ele>
      </trkpt>
      <trkpt lat="45.39128" lon="4.71702">
        <ele>343</ele>
        <time>2022-06-20T22:30:47Z</time>
      </trkpt>
      <trkpt lat="45.39119" lon="4.71769">
        <ele>341</ele>
        <time>2022-06-20T22:31:51Z</time>
      </trkpt>
      <trkpt lat="45.39102" lon="4.71825">
        <ele>339</ele>
        <time>2022-06-20T22:32:48Z</time>
      </trkpt>
      <trkpt lat="45.39078" lon="4.71879">
        <ele>338</ele>
        <time>2022-06-20T22:33:48Z</time>
      </trkpt>
      <trkpt lat="45.39072" lon="4.71936">
        <ele>337</ele>
        <time>2022-06-20T22:34:42Z</time>
      </trkpt>
      <trkpt lat="45.3906" lon="4.72055">
        <ele>330</ele>
        <time>2022-06-20T22:36:34Z</time>
      </trkpt>
      <trkpt lat="45.39049" lon="4.72117">
        <ele>328</ele>
        <time>2022-06-20T22:37:34Z</time>
      </trkpt>
      <trkpt lat="45.39046" lon="4.72176">
        <ele>326</ele>
        <time>2022-06-20T22:38:30Z</time>
      </trkpt>
      <trkpt lat="45.39021" lon="4.7225">
        <ele>323</ele>
        <time>2022-06-20T22:39:47Z</time>
      </trkpt>
      <trkpt lat="45.39001" lon="4.72326">
        <ele>323</ele>
        <time>2022-06-20T22:41:03Z</time>
      </trkpt>
      <trkpt lat="45.38978" lon="4.72389">
        <ele>322</ele>
        <time>2022-06-20T22:42:09Z</time>
      </trkpt>
      <trkpt lat="45.38948" lon="4.72454">
        <ele>320</ele>
        <time>2022-06-20T22:43:22Z</time>
      </trkpt>
      <trkpt lat="45.3891" lon="4.72514">
        <ele>317</ele>
        <time>2022-06-20T22:44:38Z</time>
      </trkpt>
      <trkpt lat="45.38844" lon="4.7266">
        <ele>310</ele>
        <time>2022-06-20T22:47:21Z</time>
      </trkpt>
      <trkpt lat="45.38829" lon="4.72627">
        <ele>309</ele>
        <time>2022-06-20T22:47:57Z</time>
      </trkpt>
      <trkpt lat="45.38798" lon="4.72581">
        <ele>306</ele>
        <time>2022-06-20T22:48:57Z</time>
      </trkpt>
      <trkpt lat="45.38758" lon="4.72534">
        <ele>299</ele>
        <time>2022-06-20T22:50:06Z</time>
      </trkpt>
      <trkpt lat="45.38732" lon="4.72496">
        <ele>294</ele>
        <time>2022-06-20T22:50:56Z</time>
      </trkpt>
      <trkpt lat="45.38706" lon="4.72449">
        <ele>286</ele>
        <time>2022-06-20T22:51:52Z</time>
      </trkpt>
      <trkpt lat="45.38666" lon="4.72405">
        <ele>274</ele>
        <time>2022-06-20T22:53:00Z</time>
      </trkpt>
      <trkpt lat="45.38629" lon="4.72383">
        <ele>266</ele>
        <time>2022-06-20T22:53:53Z</time>
      </trkpt>
      <trkpt lat="45.38611" lon="4.7238">
        <ele>262</ele>
        <time>2022-06-20T22:54:17Z</time>
      </trkpt>
      <trkpt lat="45.38584" lon="4.7238">
        <ele>256</ele>
        <time>2022-06-20T22:54:53Z</time>
      </trkpt>
      <trkpt lat="45.38556" lon="4.72455">
        <ele>258</ele>
        <time>2022-06-20T22:56:13Z</time>
      </trkpt>
      <trkpt lat="45.38533" lon="4.72507">
        <ele>255</ele>
        <time>2022-06-20T22:57:11Z</time>
      </trkpt>
      <trkpt lat="45.38509" lon="4.72546">
        <ele>250</ele>
        <time>2022-06-20T22:57:59Z</time>
      </trkpt>
      <trkpt lat="45.38478" lon="4.72575">
        <ele>249</ele>
        <time>2022-06-20T22:58:49Z</time>
      </trkpt>
      <trkpt lat="45.38453" lon="4.72599">
        <ele>250</ele>
        <time>2022-06-20T22:59:29Z</time>
      </trkpt>
      <trkpt lat="45.38433" lon="4.72616">
        <ele>249</ele>
        <time>2022-06-20T23:00:00Z</time>
      </trkpt>
      <trkpt lat="45.38406" lon="4.7264">
        <ele>248</ele>
        <time>2022-06-20T23:00:42Z</time>
      </trkpt>
      <trkpt lat="45.38391" lon="4.72655">
        <ele>249</ele>
        <time>2022-06-20T23:01:07Z</time>
      </trkpt>
      <trkpt lat="45.38365" lon="4.7268">
        <ele>251</ele>
        <time>2022-06-20T23:01:49Z</time>
      </trkpt>
      <trkpt lat="45.38348" lon="4.72705">
        <ele>249</ele>
        <time>2022-06-20T23:02:21Z</time>
      </trkpt>
      <trkpt lat="45.38337" lon="4.72727">
        <ele>246</ele>
        <time>2022-06-20T23:02:47Z</time>
      </trkpt>
      <trkpt lat="45.38321" lon="4.72742">
        <ele>241</ele>
        <time>2022-06-20T23:03:12Z</time>
      </trkpt>
      <trkpt lat="45.38312" lon="4.72764">
        <ele>237</ele>
        <time>2022-06-20T23:03:36Z</time>
      </trkpt>
      <trkpt lat="45.38313" lon="4.72787">
        <ele>237</ele>
        <time>2022-06-20T23:03:58Z</time>
      </trkpt>
      <trkpt lat="45.38311" lon="4.72816">
        <ele>235</ele>
        <time>2022-06-20T23:04:25Z</time>
      </trkpt>
      <trkpt lat="45.38312" lon="4.72848">
        <ele>234</ele>
        <time>2022-06-20T23:04:55Z</time>
      </trkpt>
      <trkpt lat="45.38321" lon="4.72876">
        <ele>234</ele>
        <time>2022-06-20T23:05:24Z</time>
      </trkpt>
      <trkpt lat="45.38332" lon="4.72893">
        <ele>234</ele>
        <time>2022-06-20T23:05:46Z</time>
      </trkpt>
      <trkpt lat="45.38336" lon="4.72918">
        <ele>233</ele>
        <time>2022-06-20T23:06:10Z</time>
      </trkpt>
      <trkpt lat="45.38321" lon="4.72946">
        <ele>229</ele>
        <time>2022-06-20T23:06:43Z</time>
      </trkpt>
      <trkpt lat="45.38316" lon="4.72972">
        <ele>225</ele>
        <time>2022-06-20T23:07:08Z</time>
      </trkpt>
      <trkpt lat="45.38298" lon="4.73005">
        <ele>219</ele>
        <time>2022-06-20T23:07:47Z</time>
      </trkpt>
      <trkpt lat="45.38315" lon="4.73002">
        <ele>221</ele>
        <time>2022-06-20T23:08:10Z</time>
      </trkpt>
      <trkpt lat="45.38329" lon="4.72977">
        <ele>225</ele>
        <time>2022-06-20T23:08:40Z</time>
      </trkpt>
      <trkpt lat="45.38336" lon="4.72954">
        <ele>229</ele>
        <time>2022-06-20T23:09:03Z</time>
      </trkpt>
      <trkpt lat="45.38348" lon="4.7293">
        <ele>234</ele>
        <time>2022-06-20T23:09:31Z</time>
      </trkpt>
      <trkpt lat="45.38358" lon="4.72911">
        <ele>237</ele>
        <time>2022-06-20T23:09:53Z</time>
      </trkpt>
      <trkpt lat="45.38354" lon="4.72888">
        <ele>238</ele>
        <time>2022-06-20T23:10:15Z</time>
      </trkpt>
      <trkpt lat="45.38364" lon="4.72867">
        <ele>242</ele>
        <time>2022-06-20T23:10:39Z</time>
      </trkpt>
      <trkpt lat="45.38381" lon="4.72898">
        <ele>242</ele>
        <time>2022-06-20T23:11:16Z</time>
      </trkpt>
      <trkpt lat="45.38398" lon="4.72945">
        <ele>243</ele>
        <time>2022-06-20T23:12:06Z</time>
      </trkpt>
      <trkpt lat="45.3839" lon="4.72969">
        <ele>241</ele>
        <time>2022-06-20T23:12:31Z</time>
      </trkpt>
      <trkpt lat="45.38385" lon="4.73018">
        <ele>241</ele>
        <time>2022-06-20T23:13:17Z</time>
      </trkpt>
      <trkpt lat="45.38375" lon="4.73041">
        <ele>238</ele>
        <time>2022-06-20T23:13:42Z</time>
      </trkpt>
      <trkpt lat="45.38364" lon="4.73073">
        <ele>235</ele>
        <time>2022-06-20T23:14:16Z</time>
      </trkpt>
      <trkpt lat="45.38359" lon="4.7311">
        <ele>229</ele>
        <time>2022-06-20T23:14:51Z</time>
      </trkpt>
      <trkpt lat="45.38373" lon="4.73159">
        <ele>229</ele>
        <time>2022-06-20T23:15:41Z</time>
      </trkpt>
      <trkpt lat="45.38399" lon="4.73206">
        <ele>232</ele>
        <time>2022-06-20T23:16:37Z</time>
      </trkpt>
      <trkpt lat="45.38423" lon="4.7326">
        <ele>223</ele>
        <time>2022-06-20T23:17:37Z</time>
      </trkpt>
      <trkpt lat="45.3845" lon="4.73297">
        <ele>225</ele>
        <time>2022-06-20T23:18:27Z</time>
      </trkpt>
      <trkpt lat="45.38458" lon="4.73339">
        <ele>219</ele>
        <time>2022-06-20T23:19:07Z</time>
      </trkpt>
      <trkpt lat="45.38456" lon="4.73367">
        <ele>216</ele>
        <time>2022-06-20T23:19:34Z</time>
      </trkpt>
      <trkpt lat="45.38462" lon="4.73394">
        <ele>216</ele>
        <time>2022-06-20T23:20:00Z</time>
      </trkpt>
      <trkpt lat="45.38459" lon="4.73428">
        <ele>213</ele>
        <time>2022-06-20T23:20:32Z</time>
      </trkpt>
      <trkpt lat="45.38449" lon="4.73453">
        <ele>211</ele>
        <time>2022-06-20T23:20:59Z</time>
      </trkpt>
      <trkpt lat="45.38433" lon="4.73471">
        <ele>207</ele>
        <time>2022-06-20T23:21:27Z</time>
      </trkpt>
      <trkpt lat="45.38409" lon="4.73476">
        <ele>203</ele>
        <time>2022-06-20T23:21:59Z</time>
      </trkpt>
      <trkpt lat="45.38397" lon="4.73513">
        <ele>204</ele>
        <time>2022-06-20T23:22:37Z</time>
      </trkpt>
      <trkpt lat="45.38386" lon="4.7354">
        <ele>201</ele>
        <time>2022-06-20T23:23:06Z</time>
      </trkpt>
      <trkpt lat="45.38397" lon="4.73581">
        <ele>201</ele>
        <time>2022-06-20T23:23:48Z</time>
      </trkpt>
      <trkpt lat="45.38394" lon="4.73631">
        <ele>192</ele>
        <time>2022-06-20T23:24:35Z</time>
      </trkpt>
      <trkpt lat="45.38399" lon="4.73681">
        <ele>184</ele>
        <time>2022-06-20T23:25:22Z</time>
      </trkpt>
      <trkpt lat="45.38411" lon="4.73693">
        <ele>181</ele>
        <time>2022-06-20T23:25:41Z</time>
      </trkpt>
      <trkpt lat="45.38432" lon="4.73687">
        <ele>181</ele>
        <time>2022-06-20T23:26:10Z</time>
      </trkpt>
      <trkpt lat="45.3846" lon="4.73684">
        <ele>183</ele>
        <time>2022-06-20T23:26:48Z</time>
      </trkpt>
      <trkpt lat="45.38464" lon="4.73716">
        <ele>178</ele>
        <time>2022-06-20T23:27:18Z</time>
      </trkpt>
      <trkpt lat="45.38486" lon="4.73712">
        <ele>179</ele>
        <time>2022-06-20T23:27:48Z</time>
      </trkpt>
      <trkpt lat="45.38505" lon="4.73723">
        <ele>177</ele>
        <time>2022-06-20T23:28:15Z</time>
      </trkpt>
      <trkpt lat="45.38538" lon="4.73746">
        <ele>172</ele>
        <time>2022-06-20T23:29:04Z</time>
      </trkpt>
      <trkpt lat="45.3857" lon="4.73765">
        <ele>169</ele>
        <time>2022-06-20T23:29:50Z</time>
      </trkpt>
      <trkpt lat="45.38598" lon="4.73801">
        <ele>171</ele>
        <time>2022-06-20T23:30:41Z</time>
      </trkpt>
      <trkpt lat="45.38594" lon="4.7385">
        <ele>165</ele>
        <time>2022-06-20T23:31:27Z</time>
      </trkpt>
      <trkpt lat="45.38593" lon="4.73914">
        <ele>161</ele>
        <time>2022-06-20T23:32:27Z</time>
      </trkpt>
      <trkpt lat="45.38589" lon="4.73969">
        <ele>158</ele>
        <time>2022-06-20T23:33:19Z</time>
      </trkpt>
      <trkpt lat="45.38594" lon="4.7401">
        <ele>157</ele>
        <time>2022-06-20T23:33:58Z</time>
      </trkpt>
      <trkpt lat="45.38609" lon="4.74063">
        <ele>161</ele>
        <time>2022-06-20T23:34:51Z</time>
      </trkpt>
      <trkpt lat="45.38635" lon="4.74118">
        <ele>166</ele>
        <time>2022-06-20T23:35:53Z</time>
      </trkpt>
      <trkpt lat="45.38645" lon="4.74146">
        <ele>167</ele>
        <time>2022-06-20T23:36:23Z</time>
      </trkpt>
      <trkpt lat="45.38639" lon="4.74196">
        <ele>164</ele>
        <time>2022-06-20T23:37:10Z</time>
      </trkpt>
      <trkpt lat="45.38627" lon="4.7423">
        <ele>161</ele>
        <time>2022-06-20T23:37:46Z</time>
      </trkpt>
      <trkpt lat="45.38619" lon="4.74276">
        <ele>163</ele>
        <time>2022-06-20T23:38:30Z</time>
      </trkpt>
      <trkpt lat="45.38631" lon="4.74321">
        <ele>164</ele>
        <time>2022-06-20T23:39:16Z</time>
      </trkpt>
      <trkpt lat="45.38663" lon="4.74353">
        <ele>155</ele>
        <time>2022-06-20T23:40:08Z</time>
      </trkpt>
      <trkpt lat="45.38693" lon="4.74404">
        <ele>156</ele>
        <time>2022-06-20T23:41:10Z</time>
      </trkpt>
      <trkpt lat="45.38718" lon="4.74432">
        <ele>153</ele>
        <time>2022-06-20T23:41:52Z</time>
      </trkpt>
      <trkpt lat="45.38736" lon="4.74467">
        <ele>150</ele>
        <time>2022-06-20T23:42:33Z</time>
      </trkpt>
      <trkpt lat="45.38746" lon="4.74498">
        <ele>148</ele>
        <time>2022-06-20T23:43:05Z</time>
      </trkpt>
      <trkpt lat="45.38772" lon="4.74556">
        <ele>148</ele>
        <time>2022-06-20T23:44:10Z</time>
      </trkpt>
      <trkpt lat="45.38745" lon="4.74581">
        <ele>149</ele>
        <time>2022-06-20T23:44:53Z</time>
      </trkpt>
      <trkpt lat="45.38701" lon="4.74607">
        <ele>151</ele>
        <time>2022-06-20T23:45:56Z</time>
      </trkpt>
      <trkpt lat="45.38677" lon="4.74617">
        <ele>152</ele>
        <time>2022-06-20T23:46:30Z</time>
      </trkpt>
      <trkpt lat="45.38626" lon="4.74662">
        <ele>152</ele>
        <time>2022-06-20T23:47:50Z</time>
      </trkpt>
      <trkpt lat="45.38597" lon="4.74682">
        <ele>153</ele>
        <time>2022-06-20T23:48:33Z</time>
      </trkpt>
      <trkpt lat="45.38563" lon="4.74711">
        <ele>154</ele>
        <time>2022-06-20T23:49:25Z</time>
      </trkpt>
      <trkpt lat="45.38545" lon="4.74718">
        <ele>155</ele>
        <time>2022-06-20T23:49:50Z</time>
      </trkpt>
      <trkpt lat="45.38526" lon="4.74734">
        <ele>155</ele>
        <time>2022-06-20T23:50:20Z</time>
      </trkpt>
      <trkpt lat="45.38509" lon="4.74765">
        <ele>154</ele>
        <time>2022-06-20T23:50:57Z</time>
      </trkpt>
      <trkpt lat="45.38505" lon="4.74812">
        <ele>153</ele>
        <time>2022-06-20T23:51:41Z</time>
      </trkpt>
      <trkpt lat="45.38506" lon="4.74867">
        <ele>149</ele>
        <time>2022-06-20T23:52:33Z</time>
      </trkpt>
      <trkpt lat="45.38505" lon="4.74911">
        <ele>145</ele>
        <time>2022-06-20T23:53:14Z</time>
      </trkpt>
      <trkpt lat="45.38511" lon="4.74948">
        <ele>143</ele>
        <time>2022-06-20T23:53:49Z</time>
      </trkpt>
      <trkpt lat="45.3847" lon="4.74981">
        <ele>145</ele>
        <time>2022-06-20T23:54:52Z</time>
      </trkpt>
      <trkpt lat="45.38483" lon="4.75016">
        <ele>143</ele>
        <time>2022-06-20T23:55:29Z</time>
      </trkpt>
      <trkpt lat="45.38467" lon="4.75051">
        <ele>143</ele>
        <time>2022-06-20T23:56:09Z</time>
      </trkpt>
      <trkpt lat="45.38416" lon="4.7505">
        <ele>144</ele>
        <time>2022-06-20T23:57:17Z</time>
      </trkpt>
      <trkpt lat="45.38423" lon="4.75084">
        <ele>142</ele>
        <time>2022-06-20T23:57:50Z</time>
      </trkpt>
      <trkpt lat="45.3843" lon="4.75129">
        <ele>142</ele>
        <time>2022-06-20T23:58:33Z</time>
      </trkpt>
      <trkpt lat="45.38419" lon="4.75166">
        <ele>142</ele>
        <time>2022-06-20T23:59:11Z</time>
      </trkpt>
      <trkpt lat="45.38412" lon="4.75199">
        <ele>143</ele>
        <time>2022-06-20T23:59:43Z</time>
      </trkpt>
      <trkpt lat="45.38394" lon="4.75204">
        <ele>143</ele>
        <time>2022-06-21T00:00:08Z</time>
      </trkpt>
      <trkpt lat="45.38405" lon="4.75358">
        <ele>143</ele>
        <time>2022-06-21T00:02:33Z</time>
      </trkpt>
      <trkpt lat="45.38386" lon="4.75417">
        <ele>140</ele>
        <time>2022-06-21T00:03:33Z</time>
      </trkpt>
      <trkpt lat="45.38336" lon="4.75403">
        <ele>140</ele>
        <time>2022-06-21T00:04:41Z</time>
      </trkpt>
      <trkpt lat="45.38306" lon="4.75384">
        <ele>140</ele>
        <time>2022-06-21T00:05:25Z</time>
      </trkpt>
      <trkpt lat="45.38286" lon="4.75378">
        <ele>140</ele>
        <time>2022-06-21T00:05:53Z</time>
      </trkpt>
      <trkpt lat="45.38275" lon="4.7539">
        <ele>140</ele>
        <time>2022-06-21T00:06:11Z</time>
      </trkpt>
      <trkpt lat="45.38306" lon="4.75413">
        <ele>139</ele>
        <time>2022-06-21T00:06:58Z</time>
      </trkpt>
      <trkpt lat="45.38331" lon="4.75444">
        <ele>139</ele>
        <time>2022-06-21T00:07:42Z</time>
      </trkpt>
      <trkpt lat="45.3837" lon="4.75472">
        <ele>139</ele>
        <time>2022-06-21T00:08:40Z</time>
      </trkpt>
      <trkpt lat="45.38409" lon="4.75501">
        <ele>139</ele>
        <time>2022-06-21T00:09:39Z</time>
      </trkpt>
      <trkpt lat="45.38452" lon="4.75531">
        <ele>139</ele>
        <time>2022-06-21T00:10:43Z</time>
      </trkpt>
      <trkpt lat="45.38501" lon="4.75559">
        <ele>140</ele>
        <time>2022-06-21T00:11:53Z</time>
      </trkpt>
      <trkpt lat="45.38573" lon="4.75585">
        <ele>141</ele>
        <time>2022-06-21T00:13:32Z</time>
      </trkpt>
      <trkpt lat="45.38647" lon="4.75597">
        <ele>142</ele>
        <time>2022-06-21T00:15:12Z</time>
      </trkpt>
      <trkpt lat="45.38702" lon="4.75598">
        <ele>142</ele>
        <time>2022-06-21T00:16:25Z</time>
      </trkpt>
      <trkpt lat="45.38758" lon="4.75588">
        <ele>142</ele>
        <time>2022-06-21T00:17:40Z</time>
      </trkpt>
      <trkpt lat="45.38809" lon="4.7558">
        <ele>142</ele>
        <time>2022-06-21T00:18:49Z</time>
      </trkpt>
      <trkpt lat="45.38872" lon="4.75563">
        <ele>141</ele>
        <time>2022-06-21T00:20:15Z</time>
      </trkpt>
      <trkpt lat="45.38919" lon="4.75551">
        <ele>141</ele>
        <time>2022-06-21T00:21:18Z</time>
      </trkpt>
      <trkpt lat="45.38953" lon="4.75541">
        <ele>141</ele>
        <time>2022-06-21T00:22:05Z</time>
      </trkpt>
      <trkpt lat="45.38993" lon="4.75552">
        <ele>140</ele>
        <time>2022-06-21T00:22:59Z</time>
      </trkpt>
      <trkpt lat="45.39031" lon="4.75533">
        <ele>140</ele>
        <time>2022-06-21T00:23:53Z</time>
      </trkpt>
      <trkpt lat="45.39083" lon="4.75496">
        <ele>139</ele>
        <time>2022-06-21T00:25:10Z</time>
      </trkpt>
      <trkpt lat="45.39134" lon="4.7548">
        <ele>140</ele>
        <time>2022-06-21T00:26:20Z</time>
      </trkpt>
      <trkpt lat="45.39182" lon="4.75471">
        <ele>140</ele>
        <time>2022-06-21T00:27:25Z</time>
      </trkpt>
      <trkpt lat="45.3923" lon="4.75467">
        <ele>141</ele>
        <time>2022-06-21T00:28:29Z</time>
      </trkpt>
      <trkpt lat="45.39276" lon="4.7544">
        <ele>141</ele>
        <time>2022-06-21T00:29:35Z</time>
      </trkpt>
      <trkpt lat="45.39329" lon="4.75402">
        <ele>141</ele>
        <time>2022-06-21T00:30:54Z</time>
      </trkpt>
      <trkpt lat="45.39382" lon="4.75369">
        <ele>141</ele>
        <time>2022-06-21T00:32:11Z</time>
      </trkpt>
      <trkpt lat="45.39436" lon="4.75356">
        <ele>141</ele>
        <time>2022-06-21T00:33:25Z</time>
      </trkpt>
      <trkpt lat="45.39483" lon="4.75344">
        <ele>142</ele>
        <time>2022-06-21T00:34:28Z</time>
      </trkpt>
      <trkpt lat="45.39527" lon="4.75324">
        <ele>142</ele>
        <time>2022-06-21T00:35:30Z</time>
      </trkpt>
      <trkpt lat="45.3957" lon="4.75279">
        <ele>142</ele>
        <time>2022-06-21T00:36:41Z</time>
      </trkpt>
      <trkpt lat="45.39607" lon="4.75242">
        <ele>143</ele>
        <time>2022-06-21T00:37:41Z</time>
      </trkpt>
      <trkpt lat="45.39647" lon="4.75217">
        <ele>141</ele>
        <time>2022-06-21T00:38:40Z</time>
      </trkpt>
      <trkpt lat="45.39699" lon="4.75209">
        <ele>140</ele>
        <time>2022-06-21T00:39:50Z</time>
      </trkpt>
      <trkpt lat="45.39745" lon="4.75184">
        <ele>140</ele>
        <time>2022-06-21T00:40:55Z</time>
      </trkpt>
      <trkpt lat="45.39782" lon="4.75148">
        <ele>140</ele>
        <time>2022-06-21T00:41:55Z</time>
      </trkpt>
      <trkpt lat="45.39811" lon="4.7511">
        <ele>141</ele>
        <time>2022-06-21T00:42:48Z</time>
      </trkpt>
      <trkpt lat="45.3985" lon="4.75088">
        <ele>141</ele>
        <time>2022-06-21T00:43:44Z</time>
      </trkpt>
      <trkpt lat="45.39891" lon="4.75056">
        <ele>140</ele>
        <time>2022-06-21T00:44:46Z</time>
      </trkpt>
      <trkpt lat="45.39927" lon="4.75029">
        <ele>140</ele>
        <time>2022-06-21T00:45:40Z</time>
      </trkpt>
      <trkpt lat="45.39972" lon="4.74985">
        <ele>140</ele>
        <time>2022-06-21T00:46:53Z</time>
      </trkpt>
      <trkpt lat="45.40018" lon="4.7494">
        <ele>138</ele>
        <time>2022-06-21T00:48:08Z</time>
      </trkpt>
      <trkpt lat="45.40061" lon="4.74899">
        <ele>140</ele>
        <time>2022-06-21T00:49:17Z</time>
      </trkpt>
      <trkpt lat="45.40087" lon="4.74861">
        <ele>142</ele>
        <time>2022-06-21T00:50:06Z</time>
      </trkpt>
      <trkpt lat="45.40137" lon="4.74824">
        <ele>141</ele>
        <time>2022-06-21T00:51:22Z</time>
      </trkpt>
      <trkpt lat="45.40187" lon="4.74773">
        <ele>141</ele>
        <time>2022-06-21T00:52:44Z</time>
      </trkpt>
      <trkpt lat="45.40224" lon="4.74741">
        <ele>140</ele>
        <time>2022-06-21T00:53:41Z</time>
      </trkpt>
      <trkpt lat="45.40261" lon="4.74708">
        <ele>140</ele>
        <time>2022-06-21T00:54:40Z</time>
      </trkpt>
      <trkpt lat="45.40307" lon="4.7466">
        <ele>141</ele>
        <time>2022-06-21T00:55:56Z</time>
      </trkpt>
      <trkpt lat="45.40347" lon="4.74622">
        <ele>142</ele>
        <time>2022-06-21T00:57:00Z</time>
      </trkpt>
      <trkpt lat="45.40406" lon="4.74563">
        <ele>143</ele>
        <time>2022-06-21T00:58:36Z</time>
      </trkpt>
      <trkpt lat="45.40454" lon="4.74518">
        <ele>142</ele>
        <time>2022-06-21T00:59:53Z</time>
      </trkpt>
      <trkpt lat="45.40503" lon="4.74464">
        <ele>142</ele>
        <time>2022-06-21T01:01:16Z</time>
      </trkpt>
      <trkpt lat="45.40559" lon="4.74421">
        <ele>141</ele>
        <time>2022-06-21T01:02:40Z</time>
      </trkpt>
      <trkpt lat="45.40605" lon="4.74378">
        <ele>140</ele>
        <time>2022-06-21T01:03:54Z</time>
      </trkpt>
      <trkpt lat="45.40645" lon="4.74345">
        <ele>140</ele>
        <time>2022-06-21T01:04:56Z</time>
      </trkpt>
      <trkpt lat="45.40709" lon="4.74297">
        <ele>140</ele>
        <time>2022-06-21T01:06:32Z</time>
      </trkpt>
      <trkpt lat="45.40769" lon="4.74253">
        <ele>140</ele>
        <time>2022-06-21T01:08:02Z</time>
      </trkpt>
      <trkpt lat="45.40814" lon="4.74227">
        <ele>140</ele>
        <time>2022-06-21T01:09:07Z</time>
      </trkpt>
      <trkpt lat="45.4087" lon="4.74188">
        <ele>140</ele>
        <time>2022-06-21T01:10:30Z</time>
      </trkpt>
      <trkpt lat="45.40918" lon="4.74164">
        <ele>140</ele>
        <time>2022-06-21T01:11:38Z</time>
      </trkpt>
      <trkpt lat="45.40968" lon="4.74135">
        <ele>141</ele>
        <time>2022-06-21T01:12:50Z</time>
      </trkpt>
      <trkpt lat="45.41029" lon="4.74107">
        <ele>141</ele>
        <time>2022-06-21T01:14:16Z</time>
      </trkpt>
      <trkpt lat="45.41082" lon="4.74089">
        <ele>140</ele>
        <time>2022-06-21T01:15:28Z</time>
      </trkpt>
      <trkpt lat="45.41139" lon="4.7408">
        <ele>142</ele>
        <time>2022-06-21T01:16:45Z</time>
      </trkpt>
      <trkpt lat="45.41189" lon="4.74063">
        <ele>142</ele>
        <time>2022-06-21T01:17:53Z</time>
      </trkpt>
      <trkpt lat="45.41229" lon="4.74053">
        <ele>142</ele>
        <time>2022-06-21T01:18:48Z</time>
      </trkpt>
      <trkpt lat="45.41215" lon="4.73986">
        <ele>142</ele>
        <time>2022-06-21T01:19:53Z</time>
        <extensions>
          <visugpx:TrkExtension xmlns:visugpx="https://www.visugpx.com/editgpx/">
            <visugpx:node>1</visugpx:node>
            </visugpx:TrkExtension>
        </extensions>
      </trkpt>
      <trkpt lat="45.41216" lon="4.73979">
        <ele>143.3</ele>
      </trkpt>
      <trkpt lat="45.41214" lon="4.73943">
        <ele>144.1</ele>
      </trkpt>
      <trkpt lat="45.41204" lon="4.73828">
        <ele>142.3</ele>
      </trkpt>
      <trkpt lat="45.41205" lon="4.73812">
        <ele>142.4</ele>
      </trkpt>
      <trkpt lat="45.41215" lon="4.73791">
        <ele>142.4</ele>
      </trkpt>
      <trkpt lat="45.41216" lon="4.73806">
        <ele>142.8</ele>
      </trkpt>
      <trkpt lat="45.41217" lon="4.73823">
        <ele>142.8</ele>
        <extensions>
          <visugpx:TrkExtension xmlns:visugpx="https://www.visugpx.com/editgpx/">
            <visugpx:node>2</visugpx:node>
            </visugpx:TrkExtension>
        </extensions>
      </trkpt>
    </trkseg>
  </trk>
</gpx>